{"data":{"norad_id":58030,"intl_designator":"2023-156C","name":"STARLINK-30549","alt_names":[],"object_type":"PAYLOAD","status":"ACTIVE","operator":null,"country":"US","launch_date":"2023-10-09","launch_site_code":"AFWTR","launch_vehicle":null,"mission":null,"orbit_class":"UNKNOWN","rcs_meters":null,"size_class":null,"mass_kg":null,"dimensions":null,"purposes":["comms"],"wikipedia_slug":null,"has_3d_model":false,"image_url":null,"decayed_at":null,"tle_current":{"epoch":"2026-09-20T22:51:27.537984Z","epoch_age_seconds":98948,"freshness":"FRESH","line1":"1 58030U 23156C   26263.95240206 -.00000177  00000+0  59093-5 0  9996","line2":"2 58030  53.1569 249.6609 0001814  79.3774 280.7433 15.34383398166180","mean_motion":15.34383398,"eccentricity":0.0001814,"inclination_deg":53.1569,"raan_deg":249.6609,"arg_perigee_deg":79.3774,"mean_anomaly_deg":280.7433,"bstar":5.9093e-6,"rev_number":16618,"period_min":93.848773512342,"perigee_km":461.51164792397,"apogee_km":463.99352266551,"semimajor_km":6840.8895852947,"source":"CELESTRAK","updated_at":"2026-09-21T09:00:33.757967Z"}}}